Change the Weather History Date:

Thursday, May 30, 2013

  Actual Average Record
Temperature  
Mean Temperature 52 °F 56 °F  
Max Temperature 63 °F 69 °F 79 °F (2007)
Min Temperature 40 °F 42 °F 28 °F (2001)
Degree Days  
Heating Degree Days 13 10  
Month to date heating degree days 323 394  
Since 1 July heating degree days 6799 7205  
Cooling Degree Days 0 0  
Month to date cooling degree days 3 0  
Year to date cooling degree days 3 0  
Growing Degree Days 2 (Base 50)    
Moisture  
Dew Point 42 °F    
Average Humidity 68    
Maximum Humidity 93    
Minimum Humidity 42    
Precipitation  
Precipitation 0.00 in 0.06 in 0.70 in (2003)
Month to date precipitation 1.13 1.77  
Year to date precipitation 6.37 9.67  
Sea Level Pressure  
Sea Level Pressure 30.00 in    
Wind  
Wind Speed 7 mph (South)    
Max Wind Speed 18 mph    
Max Gust Speed 23 mph    
Visibility 10 miles    
Events      
T = Trace of Precipitation, MM = Missing Value Source: NWS Daily Summary

Daily Weather History Graph

Daily Weather History Graph

Search for Another Location

Airport or City:

Trip Planner

Search our weather history database for the weather conditions in past years. The results will help you decide how hot, cold, wet, or windy it might be!

Date:

Astronomy

May. 30, 2013 Rise Set
Actual Time 4:55 AM PDT 8:39 PM PDT
Civil Twilight 4:16 AM PDT 9:19 PM PDT
Nautical Twilight 3:22 AM PDT 10:12 PM PDT
Astronomical Twilight 2:06 AM PDT 11:30 PM PDT
Moon 12:26 AM PDT (5/30) 11:28 AM PDT (5/30)
Length of Visible Light 17h 03m
Length of Day
15h 43m
Waning Gibbous, 61% of the Moon is Illuminated
May 30
Waning Gibbous
May 31
Last Quarter
Jun 8
New
Jun 16
First Quarter
Jun 23
Full

Hourly Weather History & Observations

Time (PDT) Temp. Windchill Dew Point Humidity Pressure Visibility Wind Dir Wind Speed Gust Speed Precip Events Conditions
12:53 AM 48.9 °F - 46.0 °F 90% 29.87 in 10.0 mi SSE 8.1 mph - 0.00 in   Overcast
1:01 AM 48.2 °F - 46.4 °F 93% 29.87 in 10.0 mi South 9.2 mph - N/A   Overcast
1:12 AM 48.2 °F - 46.4 °F 93% 29.88 in 10.0 mi SSE 5.8 mph - N/A   Overcast
1:53 AM 48.9 °F - 46.0 °F 90% 29.89 in 10.0 mi SSE 6.9 mph - N/A   Overcast
2:53 AM 46.9 °F - 43.0 °F 86% 29.90 in 10.0 mi South 5.8 mph - N/A   Scattered Clouds
3:53 AM 44.1 °F 41.5 °F 42.1 °F 93% 29.92 in 10.0 mi South 4.6 mph - N/A   Mostly Cloudy
4:53 AM 44.1 °F 39.5 °F 42.1 °F 93% 29.94 in 10.0 mi SSE 8.1 mph - N/A   Overcast
5:53 AM 44.1 °F 40.1 °F 41.0 °F 89% 29.95 in 10.0 mi South 6.9 mph - N/A   Mostly Cloudy
6:48 AM 44.6 °F 39.7 °F 41.0 °F 87% 29.95 in 10.0 mi South 9.2 mph - N/A   Mostly Cloudy
6:53 AM 45.0 °F 41.2 °F 41.0 °F 86% 29.97 in 10.0 mi SSE 6.9 mph - N/A   Mostly Cloudy
7:22 AM 44.6 °F 40.7 °F 39.2 °F 81% 29.97 in 10.0 mi SSE 6.9 mph - N/A   Scattered Clouds
7:32 AM 46.4 °F 43.5 °F 41.0 °F 81% 29.97 in 10.0 mi South 5.8 mph - N/A   Mostly Cloudy
7:53 AM 46.9 °F - 39.9 °F 77% 29.98 in 10.0 mi South 8.1 mph - N/A   Overcast
8:53 AM 48.9 °F - 41.0 °F 74% 30.01 in 10.0 mi South 10.4 mph - N/A   Mostly Cloudy
9:00 AM 50.0 °F - 41.0 °F 71% 30.00 in 10.0 mi SSW 9.2 mph - N/A   Mostly Cloudy
9:32 AM 51.8 °F - 41.0 °F 67% 30.00 in 10.0 mi South 10.4 mph - N/A   Overcast
9:53 AM 52.0 °F - 41.0 °F 66% 30.01 in 10.0 mi South 9.2 mph - N/A   Overcast
10:31 AM 53.6 °F - 42.8 °F 67% 30.01 in 10.0 mi SSW 6.9 mph - N/A   Overcast
10:53 AM 54.0 °F - 42.1 °F 64% 30.02 in 10.0 mi SSW 8.1 mph - N/A   Overcast
11:53 AM 55.9 °F - 41.0 °F 57% 30.02 in 10.0 mi SSW 8.1 mph - N/A   Mostly Cloudy
12:53 PM 55.9 °F - 42.1 °F 60% 30.03 in 10.0 mi South 10.4 mph - N/A   Overcast
1:53 PM 57.9 °F - 44.1 °F 60% 30.03 in 10.0 mi SSE 8.1 mph - N/A   Mostly Cloudy
2:53 PM 59.0 °F - 42.1 °F 53% 30.03 in 10.0 mi SSE 10.4 mph - N/A   Mostly Cloudy
3:53 PM 61.0 °F - 39.0 °F 44% 30.03 in 10.0 mi SW 10.4 mph - N/A   Mostly Cloudy
4:53 PM 62.1 °F - 39.0 °F 43% 30.04 in 10.0 mi NW 8.1 mph - N/A   Mostly Cloudy
5:53 PM 62.1 °F - 41.0 °F 46% 30.04 in 10.0 mi Variable 5.8 mph - N/A   Overcast
6:53 PM 60.1 °F - 37.0 °F 42% 30.05 in 10.0 mi West 10.4 mph - N/A   Overcast
7:53 PM 59.0 °F - 39.0 °F 48% 30.06 in 10.0 mi Calm Calm - N/A   Overcast
8:53 PM 48.9 °F - 43.0 °F 80% 30.08 in 10.0 mi NW 5.8 mph - N/A   Partly Cloudy
9:53 PM 48.0 °F - 41.0 °F 77% 30.10 in 10.0 mi Calm Calm - N/A   Mostly Cloudy
10:53 PM 43.0 °F - 39.0 °F 86% 30.11 in 10.0 mi Calm Calm - N/A   Mostly Cloudy
11:53 PM 41.0 °F 39.0 °F 37.0 °F 86% 30.12 in 10.0 mi ESE 3.5 mph - N/A   Scattered Clouds